Location: Vancouver
(49.2500°N, 123.1333°W)
Time: 08:21:54
(UTC-07:00)

Daily predictions for brighter satellites

Satellite Brightness Start Highest point End
(mag) Time Altitude Azimuth Time Altitude Azimuth Time Altitude Azimuth
Cosmos 1707 3.8 19:20:59 10° NNW 19:24:45 51° W 19:28:29 10° S
Cosmos 1464 Rocket 4.2 19:19:20 10° SSE 19:25:14 47° E 19:31:06 10° NNE
CZ-4C R/B 2.5 19:20:58 10° SW 19:26:26 80° NW 19:32:43 10° NE
Cosmos 2297 4.3 19:20:50 10° NNW 19:26:27 64° WSW 19:32:01 10° SSE
SKYMED 2 3.5 19:22:10 10° NNE 19:26:32 74° ESE 19:30:52 10° S
Cosmos 1607 4.2 19:21:02 10° SW 19:27:13 77° NW 19:33:24 10° NE
Intercosmos 25 Rocket 4.2 19:20:52 10° S 19:27:40 85° WNW 19:31:51 10° N
ALOS 3.3 19:24:12 10° ESE 19:28:03 26° ENE 19:31:55 10° N
Cosmos 1408 Rocket 3.7 19:24:39 10° N 19:28:56 51° ENE 19:33:08 10° SSE
ATLAS CENTAUR R/B 4.1 19:28:55 10° SSW 19:34:20 49° ESE 19:50:35 10° NE
Cosmos 1943 Rocket 3.7 19:31:23 10° N 19:35:24 19° NE 19:39:24 10° E
Cosmos 2369 Rocket 3.0 19:31:04 10° NNW 19:36:09 33° NE 19:41:13 10° ESE
Meteor 1-22 Rocket 4.0 19:32:17 10° S 19:37:35 74° E 19:42:53 10° NNE
Cosmos 2233 Rocket 4.4 19:31:28 10° SSW 19:37:46 73° WNW 19:44:08 10° N
Aureole 2 Rocket 2.9 19:35:10 10° SSW 19:39:32 75° ESE 19:43:45 10° NNE
Meteor 1-24 Rocket 4.1 19:34:19 10° NNW 19:39:59 69° W 19:45:24 10° S
Cosmos 1470 4.4 19:40:32 10° ESE 19:42:50 15° E 19:45:07 10° NE
USA 215 4.0 19:39:25 10° ENE 19:45:04 30° SE 19:50:40 10° S
Meteor 1-29 4.1 19:43:07 10° NE 19:46:04 24° E 19:48:59 10° SSE
SAR-Lupe-1 4.4 19:43:01 10° S 19:46:34 71° WSW 19:50:09 10° NNW
Cosmos 1603 4.3 19:41:48 10° SSE 19:46:52 33° ESE 19:51:59 10° NE
FREGAT/IRIS 2.6 19:45:12 10° SSE 19:48:17 88° E 19:51:24 10° NNW
NOAA 12 4.2 19:45:14 10° SSE 19:50:30 84° WSW 19:55:51 10° NNW
CZ-4B DEB 3.8 19:47:58 10° SE 19:50:50 29° ENE 19:53:43 10° N
SJ-6B 3.2 19:46:55 10° S 19:50:55 72° WSW 19:55:01 10° NNW
Cosmos 1674 3.5 19:49:05 10° N 19:52:35 31° ENE 19:56:04 10° SE
Helios 1A 3.0 19:51:52 10° SSE 19:56:03 66° ENE 20:00:15 10° N
Resurs 1-3 3.7 19:51:49 10° SSE 19:56:08 59° ENE 20:00:27 10° N
ERS-1 Rocket 4.4 19:55:23 14° E 19:57:54 19° ENE 20:01:25 10° NNE
Cosmos 1743 Rocket 3.8 19:53:50 10° N 19:58:12 51° ENE 20:02:29 10° SSE
Resurs 01 Rocket 1.6 19:55:11 10° SSE 19:59:39 80° ENE 20:04:07 10° NNW
In-Cosmos 22 4.3 19:54:03 10° NNW 19:59:52 87° W 20:05:38 10° S
Cosmos 2333 Rocket 3.7 19:56:45 10° WSW 20:02:09 39° NW 20:07:34 10° NNE
Cosmos 1346 3.0 20:00:17 10° N 20:03:15 62° ENE 20:06:11 10° SSE
ATLAS 3B R/B 4.0 19:56:09 10° WSW 20:03:16 43° NNW 20:10:09 10° NE
Cosmos 1758 3.3 19:59:54 10° S 20:03:56 61° E 20:08:00 10° NNE
Cosmos 1452 Rocket 4.1 20:04:32 10° NNW 20:09:44 60° WSW 20:14:52 10° S
COSMO-SKYMED 1 4.2 20:10:27 10° N 20:14:29 38° WNW 20:18:31 10° SW
FengYun 1-2 T 4.2 20:09:13 10° SSE 20:14:44 85° ENE 20:20:15 10° NNW
GP-B 3.8 20:17:03 10° NNE 20:21:06 33° E 20:23:17 21° SE
ATLAS 5 CENTAUR R/B 1.8 20:16:31 10° SSW 20:21:21 75° SE 20:26:40 10° NE
Cosmos 2237 Rocket 3.9 20:17:27 10° WSW 20:22:34 33° NW 20:27:42 10° NNE
NOSS 3-2 (A) 3.6 20:17:39 10° SW 20:23:51 82° NW 20:30:45 10° NE
Nadezhda 4 Rocket 4.0 20:20:41 10° N 20:27:01 89° E 20:33:15 10° S
Cosmos 1328 4.3 20:23:54 10° N 20:27:38 38° ENE 20:28:46 31° ESE
ASTEX 1 3.4 20:23:34 10° NNE 20:28:26 58° E 20:33:15 10° S
Helios 1B rocket 2.4 20:24:21 10° NNE 20:28:29 89° E 20:32:36 10° SSW
Cosmos 1544 3.0 20:26:47 10° S 20:30:31 82° E 20:34:17 10° NNE
Cosmos 1420 Rocket 4.3 20:25:29 10° NNW 20:30:46 69° WSW 20:36:03 10° SSE
Cosmos 468 4.4 20:26:06 10° SSW 20:31:20 76° ESE 20:36:35 10° NNE
Cosmos 1939 Rocket 4.0 20:33:52 26° ENE 20:33:52 26° ENE 20:37:11 10° N
ERBS 3.1 20:31:09 10° NW 20:34:30 41° NNE 20:35:22 34° ENE
Meteor 2-12 Rocket 4.5 20:28:38 10° S 20:34:48 87° W 20:41:01 10° N
Cosmos 1092 Rocket 3.9 20:28:52 10° N 20:35:08 78° E 20:41:18 10° SSE
SL-14 R/B 4.2 20:31:51 10° N 20:35:27 30° ENE 20:35:30 30° ENE
Cosmos 839 Rocket 4.3 20:28:01 10° NW 20:36:15 81° NE 20:40:52 22° SE
Cosmos 1655 Rocket 4.3 20:31:41 10° N 20:37:40 45° ENE 20:40:56 25° SE
CZ-2D R/B 3.2 20:35:31 16° SSE 20:38:39 90° ENE 20:42:34 10° NNW
Cosmos 1805 Rocket 4.4 20:36:47 10° N 20:40:46 31° ENE 20:40:53 31° ENE
H-2A R/B 3.6 20:43:11 21° NE 20:43:11 21° NE 20:46:17 10° NNE
SL-16 R/B 3.3 20:37:53 10° SW 20:43:21 46° NW 20:48:50 10° NNE
Cosmos 2026 Rocket 4.0 20:42:16 10° N 20:48:17 58° ENE 20:51:47 26° SE
Cosmos-2242 3.9 20:46:31 10° SSW 20:50:47 51° WNW 20:55:07 10° N
ISS -0.9 20:48:54 10° SSW 20:49:32 14° SSW 20:49:32 14° SSW
SPOT 5 4.1 20:53:01 22° NE 20:53:01 22° NE 20:55:46 10° N
H-2A R/B 3.1 20:49:41 17° S 20:52:34 65° WSW 20:56:27 10° NNW
Cosmos 1633 Rocket 4.4 20:50:14 10° NNE 20:52:59 24° NE 20:52:59 24° NE
Cosmos 1048 Rocket 3.9 20:48:42 10° SSW 20:53:59 79° ESE 20:59:14 10° NNE
Cosmos 2151 2.8 20:50:29 10° N 20:54:43 74° E 20:55:56 45° SSE
Cosmos 1269 Rocket 4.0 20:49:35 10° SSW 20:54:53 90° WNW 21:00:12 10° NNE
CENTAUR R/B 2.7 20:49:06 10° S 20:54:55 46° ESE 21:01:28 10° NE
Cosmos 1634 Rocket 3.9 20:48:56 10° S 20:55:05 65° E 21:01:14 10° NNE
Cosmos 2221 4.0 20:58:19 23° NE 20:58:19 23° NE 21:00:17 10° NNE
Cosmos 2058 3.0 20:52:29 10° N 20:56:31 52° ENE 20:56:31 52° ENE
Cosmos 1953 3.9 20:53:31 10° SW 20:57:13 36° WNW 21:00:55 10° N
YAOGAN 11 4.1 20:58:37 52° E 20:58:54 53° ENE 21:03:06 10° N
FENGYUN 3A 4.2 20:53:53 10° S 20:59:10 58° W 21:04:31 10° NNW
Envisat 3.2 20:59:46 44° ESE 21:00:45 51° ENE 21:05:41 10° N
NOSS 3-2 (C) 4.0 20:56:54 10° WSW 21:03:05 63° NW 21:09:57 10° NE
USA 186 3.5 21:04:54 22° NW 21:04:54 22° NW 21:06:00 10° NNW
ALOS 3.3 21:00:50 10° S 21:05:18 44° W 21:09:48 10° NNW
Gbstr 26 Del rocket 4.4 21:05:24 10° SSW 21:08:14 30° S 21:08:14 30° S
Cosmos 2195 Rocket 4.5 21:03:54 10° N 21:10:16 89° W 21:14:40 21° S
Cosmos 1842 Rocket 3.9 21:06:47 10° SSW 21:11:05 63° WNW 21:15:26 10° N
H-2A R/B 4.0 21:12:41 15° NE 21:12:41 15° NE 21:14:46 10° NNE
CZ-4C R/B 4.1 21:10:53 10° W 21:15:57 29° NNW 21:21:37 10° NE
Cosmos 158 Rocket 3.6 21:13:18 10° SSW 21:18:10 78° ESE 21:23:04 10° NNE
Cosmos 1470 3.6 21:14:46 10° SSW 21:18:33 49° WNW 21:22:20 10° N
Cosmos 1666 Rocket 4.2 21:15:26 10° N 21:18:53 44° NE 21:18:53 44° NE
Cosmos 1943 Rocket 2.1 21:14:28 10° NNW 21:20:09 77° ENE 21:21:11 59° SE
Cosmos 2369 Rocket 2.8 21:14:57 10° NW 21:20:27 53° WSW 21:23:24 26° S
Cosmos 1733 3.8 21:18:34 20° SSW 21:21:05 55° WNW 21:24:54 10° N
Meteor 2-20 4.4 21:15:47 10° N 21:21:56 66° ENE 21:23:12 53° SE
Cosmos 1943 3.0 21:19:38 10° SSW 21:25:16 81° ESE 21:30:55 10° NNE
USA 215 3.1 21:24:24 24° ENE 21:28:39 86° SE 21:35:13 10° WSW
SL-8 R/B 4.5 21:24:58 10° SW 21:28:18 39° SSW 21:28:18 39° SSW
SeaSat 1 3.7 21:25:13 10° NNE 21:35:11 10° SSW 21:27:30 27° NE
MetOp-B 4.4 21:32:03 51° NE 21:32:03 51° NE 21:36:54 10° N
SPOT 1/Viking Rocket 4.5 21:35:37 34° NE 21:35:37 34° NE 21:39:16 10° N
Aureole 3 4.1 21:28:39 10° N 21:35:13 74° ENE 21:35:32 71° ESE
ERS-1 Rocket 3.0 21:35:23 61° SSW 21:36:09 74° WSW 21:41:13 10° NNW
Meteor 2-1 Rocket 4.2 21:48:44 68° SSW 21:49:32 88° W 21:55:29 10° NNE
Terra 3.9 21:53:42 17° NNE 21:53:42 17° NNE 21:55:11 10° N
Sich 1 4.1 21:51:38 10° NNW 21:54:35 41° NNW 21:54:35 41° NNW
Cosmos 2180 Rocket 4.3 21:57:30 79° SSW 21:57:55 88° W 22:04:06 10° N
ATLAS 5 CENTAUR R/B 3.7 22:02:07 10° W 22:06:35 30° NNW 22:11:00 12° NNE
BREEZE-M DEB (TANK) 4.3 22:06:48 10° W 22:12:56 34° WSW 22:12:56 34° WSW
Cosmos 2279 Rocket 4.5 22:15:30 37° SW 22:17:42 56° WNW 22:23:49 10° N
H-2A R/B 3.7 22:20:20 33° NW 22:20:20 33° NW 22:23:01 10° NNW
Lacrosse 4 Rocket 4.3 22:23:41 10° N 22:24:25 11° NNE 22:24:25 11° NNE
Cosmos 1656 Rocket 4.4 22:20:47 10° NNW 22:24:48 49° NW 22:24:48 49° NW
ARGOS 4.0 22:28:53 46° NNW 22:28:53 46° NNW 22:32:40 10° NNW
Cosmos 2266 Rocket 4.3 22:24:53 10° NNW 22:30:36 66° NW 22:30:36 66° NW
CENTAUR R/B 3.3 22:39:22 10° WSW 22:45:34 52° NW 22:52:38 10° NE
H-2A R/B 3.8 22:53:20 27° NNW 22:53:20 27° NNW 22:55:39 10° NNW
Cosmos 1980 Rocket 4.2 22:47:34 10° N 22:50:27 20° NNE 22:50:27 20° NNE
Cosmos 1943 Rocket 4.3 22:59:22 10° NW 23:02:43 19° W 23:02:43 19° W
CZ-4C R/B 4.4 23:01:34 10° NW 23:06:33 24° N 23:08:56 20° NE
SeaSat 1 4.5 23:03:21 10° N 23:07:10 25° NW 23:07:10 25° NW
USA 215 3.9 23:11:47 51° NNW 23:11:47 51° NNW 23:17:44 10° W
Terra 4.5 23:32:36 16° NNW 23:32:36 16° NNW 23:33:37 10° NNW
Cosmos 2322 Rocket 4.5 23:42:09 10° N 23:44:21 18° N 23:44:21 18° N
ATLAS 3B R/B 4.1 23:42:33 10° NW 23:48:32 31° NNE 23:48:32 31° NNE
ATLAS 5 CENTAUR R/B 4.5 23:49:13 10° NW 23:52:33 19° N 23:52:33 19° N
